Regional Weather Roundup
Issued by NWS Albany, NY

Home | Current Version | Previous Version | Graphics & Text | Print | Product List | Glossary On
Versions: 1 2 3 4 5 6 7 8 9 10 11 12 13 14 15 16 17 18 19 20 21 22 23 24 25 26 27 28 29 30 31 32 33 34 35 36 37 38 39 40 41 42 43 44 45 46 47 48 49 50
000
ASUS41 KALY 290910
RWRALY

NEW YORK STATE HOURLY WEATHER ROUNDUP
NATIONAL WEATHER SERVICE ALBANY NY
500 AM EDT SUN MAR 29 2015

NOTE: "FAIR" INDICATES FEW OR NO CLOUDS BELOW 12,000 FEET WITH NO
SIGNIFICANT WEATHER AND/OR NO OBSTRUCTIONS TO VISIBILITY.

NYZ032-033-038>043-046>054-057>066-NYZ062>081-291000-
EAST


CITY           SKY/WX    TMP DP  RH WIND       PRES   REMARKS
ALBANY         CLEAR     13   5  70 CALM      30.19R
GLENS FALLS    CLEAR     17   8  67 CALM      30.16R
POUGHKEEPSIE   CLEAR     22   8  55 CALM      30.17R
NEWBURGH       PTCLDY    21   9  58 NW6       30.16R WCI  14
MONTGOMERY     CLEAR     21   3  45 NW6       30.15R WCI  13
WHITE PLAINS   MOCLDY    24   7  48 NW14G20   30.13R WCI  12
ISLIP          CLOUDY    26  14  60 NW14      30.11R WCI  14
NEW YORK CITY  MOCLDY    27  11  51 NW16G23   30.17R WCI  15
CENTRAL PARK   CLOUDY    26   8  46 VRB5      30.19R WCI  20
$$

NYZ005>009-017-018-044>046-055-056-291000-
CENTRAL


CITY           SKY/WX    TMP DP  RH WIND       PRES   REMARKS
FULTON         CLEAR     15   9  76 CALM      30.22R
SYRACUSE       CLEAR     19  12  74 W8        30.22R WCI   9
ROME           CLEAR      9   5  84 CALM      30.23R
ELMIRA         CLEAR     14   9  80 W6        30.23R WCI   5
BINGHAMTON     CLEAR     14   8  77 NW7       30.13R WCI   4
MONTICELLO     CLEAR     14   7  73 W8        30.12R WCI   3
$$

NYZ026>034-041>043-291000-
NORTH


CITY           SKY/WX    TMP DP  RH WIND       PRES   REMARKS
WATERTOWN      CLEAR     14   8  77 S3        30.21R
FORT DRUM      NOT AVBL
MASSENA        CLEAR     13   4  67 SW5       30.18S WCI   5
SARANAC LAKE   CLEAR     -8 -13  78 CALM      30.07R
PLATTSBURGH    CLEAR     17   4  56 CALM      30.15R
$$

NYZ001>004-010>016-019>021-291000-
WEST


CITY           SKY/WX    TMP DP  RH WIND       PRES   REMARKS
NIAGARA FALLS  CLEAR     18  12  77 SW7       30.26R WCI   9
BUFFALO        CLEAR     17  10  74 SW9       30.26S WCI   6
DUNKIRK        CLEAR     17  11  77 SW6       30.28F WCI   9
JAMESTOWN      CLEAR     10   7  85 S3        30.20S
WELLSVILLE     CLEAR     11   6  81 W7        30.17R WCI   0
ROCHESTER      CLEAR     20  12  71 W7        30.25S WCI  11
PENN YAN       CLEAR     21  10  62 W7        30.21R WCI  12
$$

             KEY
       WCI = WIND CHILL INDEX
       VSB = VISIBILITY
       HX  = HEAT INDEX
$$



USA.gov is the U.S. government's official web portal to all federal, state and local government web resources and services.